TimeEDT,TemperatureF,Dew PointF,Humidity,Sea Level PressureIn,VisibilityMPH,Wind Direction,Wind SpeedMPH,Gust SpeedMPH,PrecipitationIn,Events,Conditions,WindDirDegrees,DateUTC
12:53 AM,48.9,42.1,77,30.00,10.0,South,5.8,-,N/A,,Clear,170,2012-10-10 04:53:00
1:53 AM,48.0,42.1,80,29.99,10.0,SSE,5.8,-,N/A,,Clear,150,2012-10-10 05:53:00
2:53 AM,48.0,42.1,80,29.96,10.0,SSE,4.6,-,N/A,,Clear,150,2012-10-10 06:53:00
3:53 AM,42.1,39.9,92,29.94,10.0,Calm,Calm,-,N/A,,Clear,0,2012-10-10 07:53:00
4:53 AM,45.0,42.1,90,29.93,10.0,SSE,3.5,-,N/A,,Overcast,150,2012-10-10 08:53:00
5:53 AM,50.0,45.0,83,29.91,10.0,SSE,5.8,-,N/A,,Partly Cloudy,160,2012-10-10 09:53:00
6:53 AM,46.9,44.1,90,29.90,10.0,South,3.5,-,N/A,,Clear,170,2012-10-10 10:53:00
7:53 AM,46.0,43.0,89,29.88,10.0,Calm,Calm,-,N/A,,Scattered Clouds,0,2012-10-10 11:53:00
8:53 AM,55.0,48.0,77,29.86,10.0,South,6.9,-,N/A,,Mostly Cloudy,170,2012-10-10 12:53:00
9:53 AM,59.0,48.0,67,29.83,10.0,South,9.2,-,N/A,,Overcast,190,2012-10-10 13:53:00
10:53 AM,60.1,48.0,64,29.79,10.0,South,15.0,20.7,N/A,,Overcast,180,2012-10-10 14:53:00
11:53 AM,57.9,48.0,70,29.77,10.0,South,11.5,24.2,N/A,,Overcast,190,2012-10-10 15:53:00
12:53 PM,59.0,46.9,64,29.75,10.0,SSW,13.8,19.6,N/A,,Overcast,210,2012-10-10 16:53:00
1:53 PM,61.0,46.9,60,29.70,10.0,SSW,18.4,26.5,N/A,,Scattered Clouds,200,2012-10-10 17:53:00
2:53 PM,61.0,43.0,52,29.68,10.0,SW,21.9,29.9,N/A,,Scattered Clouds,220,2012-10-10 18:53:00
3:53 PM,53.1,46.9,80,29.73,4.0,West,21.9,32.2,0.01,Rain,Rain,270,2012-10-10 19:53:00
4:53 PM,50.0,46.9,89,29.73,10.0,SW,11.5,-,0.03,Rain,Light Rain,230,2012-10-10 20:53:00
5:53 PM,50.0,45.0,83,29.76,10.0,West,10.4,19.6,0.00,,Overcast,280,2012-10-10 21:53:00
6:53 PM,46.0,43.0,89,29.79,10.0,SW,4.6,-,0.01,,Mostly Cloudy,220,2012-10-10 22:53:00
7:53 PM,48.0,43.0,83,29.80,10.0,WSW,8.1,-,0.02,,Overcast,250,2012-10-10 23:53:00
8:53 PM,48.0,42.1,80,29.81,10.0,WSW,8.1,-,N/A,,Overcast,250,2012-10-11 00:53:00
9:53 PM,48.0,39.9,74,29.83,10.0,WSW,13.8,20.7,N/A,,Overcast,240,2012-10-11 01:53:00
10:53 PM,46.0,37.0,71,29.82,10.0,WSW,9.2,-,0.00,,Overcast,240,2012-10-11 02:53:00
11:53 PM,46.0,37.9,73,29.83,10.0,WSW,10.4,-,N/A,,Overcast,240,2012-10-11 03:53:00